,,Stat6,,Stat2,,Stat8,,Stat9,,Stat10,,Wind1,,Wind1,
time,status,PA1M_AVG,status,PR1M_SUM,status,RH1M_AVG,status,SR1M_AVG,status,TA1M_AVG,status,W1dAve1m,status,W1sAve1m,
2006-04-30, 00:00:01,VALID,917.519,VALID,0,VALID,96.9751,VALID,-0.288674,VALID,21.0753,VALID,346,VALID,1.08854,
2006-04-30, 00:01:01,VALID,917.515,VALID,0,VALID,96.8543,VALID,-0.305655,VALID,21.6102,VALID,2,VALID,0.709517,
2006-04-30, 00:02:01,VALID,917.518,VALID,0,VALID,96.9026,VALID,-0.271693,VALID,21.2193,VALID,13,VALID,0.957741,
2006-04-30, 00:03:01,VALID,917.526,VALID,0,VALID,96.9853,VALID,-0.288674,VALID,20.9671,VALID,8,VALID,0.925876,
2006-04-30, 00:04:01,VALID,917.526,VALID,0,VALID,97.0832,VALID,-0.305655,VALID,20.5016,VALID,2,VALID,1.25305,
2006-04-30, 00:05:01,VALID,917.532,VALID,0,VALID,97.0781,VALID,-0.305655,VALID,21.4092,VALID,358,VALID,1.13281,
2006-04-30, 00:06:01,VALID,917.542,VALID,0,VALID,97.1417,VALID,-0.288674,VALID,21.4043,VALID,15,VALID,0.798473,
2006-04-30, 00:07:01,VALID,917.558,VALID,0,VALID,97.1252,VALID,-0.288674,VALID,21.0042,VALID,3,VALID,0.538086,
2006-04-30, 00:08:01,VALID,917.572,VALID,0,VALID,97.3197,VALID,-0.305655,VALID,21.0537,VALID,358,VALID,0.449219,
2006-04-30, 00:09:01,VALID,917.601,VALID,0,VALID,97.4431,VALID,-0.288674,VALID,21.3291,VALID,357,VALID,0.156977,
2006-04-30, 00:10:01,VALID,917.606,VALID,0,VALID,97.3629,VALID,-0.254712,VALID,21.3798,VALID,357,VALID,0.209375,
2006-04-30, 00:11:01,VALID,917.633,VALID,0,VALID,97.3655,VALID,-0.288674,VALID,21.6537,VALID,357,VALID,0.358613,
2006-04-30, 00:12:01,VALID,917.654,VALID,0,VALID,97.3871,VALID,-0.271693,VALID,21.0477,VALID,325,VALID,0.690991,
2006-04-30, 00:13:01,VALID,917.667,VALID,0,VALID,97.4138,VALID,-0.305655,VALID,21.3647,VALID,315,VALID,0.502951,
2006-04-30, 00:14:01,VALID,917.683,VALID,0,VALID,97.6274,VALID,-0.305655,VALID,21.7842,VALID,336,VALID,0.743075,
2006-04-30, 00:15:01,VALID,917.682,VALID,0,VALID,97.7902,VALID,-0.305655,VALID,20.429,VALID,329,VALID,0.771949,
2006-04-30, 00:16:01,VALID,917.686,VALID,0,VALID,97.9835,VALID,-0.254712,VALID,21.7048,VALID,332,VALID,1.10859,
2006-04-30, 00:17:01,VALID,917.683,VALID,0,VALID,97.8741,VALID,-0.254712,VALID,20.463,VALID,349,VALID,0.745094,
2006-04-30, 00:18:01,VALID,917.692,VALID,0,VALID,97.8919,VALID,-0.254712,VALID,21.2237,VALID,338,VALID,0.483132,
2006-04-30, 00:19:01,VALID,917.694,VALID,0,VALID,97.8678,VALID,-0.271693,VALID,21.084,VALID,8,VALID,0.46532,
2006-04-30, 00:20:01,VALID,917.693,VALID,0,VALID,97.7838,VALID,-0.271693,VALID,20.3414,VALID,340,VALID,0.924055,
2006-04-30, 00:21:01,VALID,917.694,VALID,0,VALID,98.0865,VALID,-0.288674,VALID,20.7283,VALID,334,VALID,1.33838,
2006-04-30, 00:22:01,VALID,917.693,VALID,0,VALID,97.9962,VALID,-0.220751,VALID,20.8264,VALID,353,VALID,0.770167,
2006-04-30, 00:23:01,VALID,917.705,VALID,0,VALID,97.8678,VALID,-0.271693,VALID,20.7725,VALID,344,VALID,0.455221,
2006-04-30, 00:24:01,VALID,917.698,VALID,0,VALID,97.7864,VALID,-0.271693,VALID,21.2502,VALID,344,VALID,0.0928819,
2006-04-30, 00:25:01,VALID,917.704,VALID,0,VALID,97.8398,VALID,-0.305655,VALID,20.4776,VALID,344,VALID,0.0552591,
2006-04-30, 00:26:00,VALID,917.713,VALID,0,VALID,97.7762,VALID,-0.254712,VALID,20.5687,VALID,343,VALID,0.154447,
2006-04-30, 00:27:00,VALID,917.733,VALID,0,VALID,97.9924,VALID,-0.305655,VALID,20.7454,VALID,355,VALID,0.459635,
2006-04-30, 00:28:00,VALID,917.745,VALID,0,VALID,98.2721,VALID,-0.288674,VALID,21.2501,VALID,336,VALID,0.640625,
2006-04-30, 00:29:00,VALID,917.771,VALID,0,VALID,98.2836,VALID,-0.288674,VALID,20.8698,VALID,327,VALID,0.0562855,
2006-04-30, 00:30:00,VALID,917.778,VALID,0,VALID,98.22,VALID,-0.305655,VALID,21.6285,VALID,327,VALID,0.0605945,
2006-04-30, 00:31:00,VALID,917.783,VALID,0,VALID,98.3955,VALID,-0.305655,VALID,21.1252,VALID,318,VALID,0.323864,
2006-04-30, 00:32:00,VALID,917.775,VALID,0,VALID,98.688,VALID,-0.288674,VALID,20.8349,VALID,333,VALID,0.972202,
2006-04-30, 00:33:00,VALID,917.795,VALID,0,VALID,98.6333,VALID,-0.254712,VALID,21.4802,VALID,311,VALID,0.746094,
2006-04-30, 00:34:00,VALID,917.815,VALID,0,VALID,98.7096,VALID,-0.271693,VALID,20.5634,VALID,285,VALID,0.408067,
2006-04-30, 00:35:00,VALID,917.816,VALID,0,VALID,98.9258,VALID,-0.254712,VALID,20.2924,VALID,305,VALID,0.629439,
2006-04-30, 00:36:00,VALID,917.822,VALID,0,VALID,98.8355,VALID,-0.288674,VALID,21.213,VALID,334,VALID,0.444792,
2006-04-30, 00:37:00,VALID,917.813,VALID,0,VALID,98.7871,VALID,-0.288674,VALID,20.8808,VALID,283,VALID,0.166481,
2006-04-30, 00:38:00,VALID,917.818,VALID,0,VALID,99.044,VALID,-0.271693,VALID,21.4551,VALID,229,VALID,0.0539931,
2006-04-30, 00:39:00,VALID,917.842,VALID,0,VALID,98.9105,VALID,-0.305655,VALID,21.4967,VALID,233,VALID,0.313743,
2006-04-30, 00:40:00,VALID,917.874,VALID,0,VALID,99.0872,VALID,-0.288674,VALID,20.5146,VALID,234,VALID,0.46513,
2006-04-30, 00:41:00,VALID,917.899,VALID,0,VALID,99.381,VALID,-0.288674,VALID,20.1669,VALID,234,VALID,0.283156,
2006-04-30, 00:42:00,VALID,917.912,VALID,0,VALID,99.4458,VALID,-0.220751,VALID,20.9235,VALID,234,VALID,0.0518973,
2006-04-30, 00:43:00,VALID,917.924,VALID,0,VALID,99.4942,VALID,-0.288674,VALID,21.6551,VALID,234,VALID,0,
2006-04-30, 00:44:00,VALID,917.919,VALID,0,VALID,99.4802,VALID,-0.305655,VALID,20.835,VALID,234,VALID,0,
2006-04-30, 00:45:00,VALID,917.898,VALID,0,VALID,99.5348,VALID,-0.305655,VALID,20.2919,VALID,234,VALID,0,
2006-04-30, 00:46:00,VALID,917.872,VALID,0,VALID,99.512,VALID,-0.305655,VALID,20.9906,VALID,234,VALID,0,
2006-04-30, 00:47:00,VALID,917.851,VALID,0,VALID,99.484,VALID,-0.305655,VALID,20.977,VALID,234,VALID,0,
2006-04-30, 00:48:00,VALID,917.836,VALID,0,VALID,99.4776,VALID,-0.305655,VALID,20.9817,VALID,234,VALID,0.0046503,
2006-04-30, 00:49:00,VALID,917.836,VALID,0,VALID,99.5183,VALID,-0.305655,VALID,21.3153,VALID,267,VALID,0.368676,
2006-04-30, 00:50:00,VALID,917.823,VALID,0,VALID,99.5081,VALID,-0.305655,VALID,20.3831,VALID,339,VALID,0.249428,
2006-04-30, 00:51:00,VALID,917.825,VALID,0,VALID,99.6175,VALID,-0.322636,VALID,20.1952,VALID,339,VALID,0.42569,
2006-04-30, 00:52:00,VALID,917.837,VALID,0,VALID,99.6747,VALID,-0.322636,VALID,20.2912,VALID,339,VALID,0.550114,
2006-04-30, 00:53:00,VALID,917.854,VALID,0,VALID,99.8273,VALID,-0.254712,VALID,20.7685,VALID,339,VALID,0.350675,
2006-04-30, 00:54:00,VALID,917.876,VALID,0,VALID,99.9265,VALID,-0.322636,VALID,21.1406,VALID,339,VALID,0.240189,
2006-04-30, 00:55:00,VALID,917.895,VALID,0,VALID,99.9977,VALID,-0.305655,VALID,21.3402,VALID,339,VALID,0.0720274,
2006-04-30, 00:56:00,VALID,917.917,VALID,0,VALID,99.9606,VALID,-0.305655,VALID,20.1354,VALID,339,VALID,0,
2006-04-30, 00:57:00,VALID,917.907,VALID,0,VALID,99.7205,VALID,-0.339617,VALID,20.5703,VALID,339,VALID,0.00167411,
2006-04-30, 00:58:00,VALID,917.896,VALID,0,VALID,99.3759,VALID,-0.322636,VALID,20.378,VALID,339,VALID,0.0381098,
2006-04-30, 00:59:00,VALID,917.905,VALID,0,VALID,99.2093,VALID,-0.220751,VALID,20.3603,VALID,339,VALID,0.247275,
2006-04-30, 01:00:00,VALID,917.915,VALID,0,VALID,99.2665,VALID,-0.237732,VALID,20.6016,VALID,345,VALID,0.432528,
2006-04-30, 01:01:00,VALID,917.921,VALID,0,VALID,99.3276,VALID,-0.220751,VALID,19.8889,VALID,355,VALID,0.599414,
2006-04-30, 01:02:00,VALID,917.94,VALID,0,VALID,99.4102,VALID,-0.220751,VALID,19.6088,VALID,359,VALID,0.763808,
2006-04-30, 01:03:00,VALID,917.971,VALID,0,VALID,99.7978,VALID,-0.20377,VALID,20.8207,VALID,353,VALID,1.01786,
2006-04-30, 01:04:00,VALID,918.013,VALID,0,VALID,100,VALID,-0.237732,VALID,20.6287,VALID,355,VALID,0.886364,
2006-04-30, 01:05:00,VALID,918.04,VALID,0,VALID,100,VALID,-0.20377,VALID,19.6644,VALID,344,VALID,0.819169,
2006-04-30, 01:06:00,VALID,918.056,VALID,0,VALID,100,VALID,-0.20377,VALID,20.1627,VALID,342,VALID,0.854106,
2006-04-30, 01:07:00,VALID,918.067,VALID,0,VALID,99.9952,VALID,-0.20377,VALID,21.0799,VALID,359,VALID,0.715199,
2006-04-30, 01:08:00,VALID,918.07,VALID,0,VALID,100,VALID,-0.20377,VALID,20.4799,VALID,359,VALID,0.972222,
2006-04-30, 01:09:00,VALID,918.054,VALID,0,VALID,100,VALID,-0.220751,VALID,20.4928,VALID,347,VALID,0.716146,
2006-04-30, 01:10:00,VALID,918.033,VALID,0,VALID,100,VALID,-0.220751,VALID,20.4648,VALID,339,VALID,0.712426,
2006-04-30, 01:11:00,VALID,918.024,VALID,0,VALID,100,VALID,-0.271693,VALID,20.4794,VALID,336,VALID,0.653993,
2006-04-30, 01:12:00,VALID,918.013,VALID,0,VALID,100,VALID,-0.339617,VALID,21.1422,VALID,1,VALID,0.577939,
2006-04-30, 01:13:00,VALID,918.015,VALID,0,VALID,99.9542,VALID,-0.322636,VALID,20.6076,VALID,6,VALID,0.599609,
2006-04-30, 01:14:00,VALID,918.012,VALID,0,VALID,99.8909,VALID,-0.322636,VALID,20.7654,VALID,334,VALID,0.727257,
2006-04-30, 01:15:00,VALID,918.019,VALID,0,VALID,99.8693,VALID,-0.305655,VALID,20.7043,VALID,331,VALID,0.73913,
2006-04-30, 01:16:00,VALID,918.04,VALID,0,VALID,100,VALID,-0.305655,VALID,21.0279,VALID,318,VALID,0.588068,
2006-04-30, 01:17:00,VALID,918.031,VALID,0,VALID,100,VALID,-0.220751,VALID,20.78,VALID,321,VALID,0.163352,
2006-04-30, 01:18:00,VALID,918.028,VALID,0,VALID,99.9903,VALID,-0.237732,VALID,19.7416,VALID,321,VALID,0.108594,
2006-04-30, 01:19:00,VALID,918.019,VALID,0,VALID,99.8489,VALID,-0.254712,VALID,20.5754,VALID,321,VALID,0.00744048,
2006-04-30, 01:20:00,VALID,918.049,VALID,0,VALID,99.6849,VALID,-0.254712,VALID,20.4275,VALID,321,VALID,0.0345395,
2006-04-30, 01:21:00,VALID,918.055,VALID,0,VALID,99.6824,VALID,-0.237732,VALID,20.6755,VALID,321,VALID,0.0603693,
2006-04-30, 01:22:00,VALID,918.061,VALID,0,VALID,99.6824,VALID,-0.220751,VALID,20.6487,VALID,321,VALID,0,
2006-04-30, 01:23:00,VALID,918.059,VALID,0,VALID,99.6226,VALID,-0.305655,VALID,20.3257,VALID,321,VALID,0,
2006-04-30, 01:24:00,VALID,918.062,VALID,0,VALID,99.6099,VALID,-0.220751,VALID,20.2026,VALID,321,VALID,0,
2006-04-30, 01:25:00,VALID,918.058,VALID,0,VALID,99.5704,VALID,-0.305655,VALID,20.8214,VALID,321,VALID,0,
2006-04-30, 01:26:00,VALID,918.041,VALID,0,VALID,99.704,VALID,-0.305655,VALID,20.4656,VALID,321,VALID,0.100898,
2006-04-30, 01:27:00,VALID,918.031,VALID,0,VALID,99.8032,VALID,-0.305655,VALID,21.7755,VALID,321,VALID,0.297238,
2006-04-30, 01:28:00,VALID,918.022,VALID,0,VALID,99.6633,VALID,-0.322636,VALID,20.5768,VALID,345,VALID,0.574673,
2006-04-30, 01:29:00,VALID,918.024,VALID,0,VALID,99.5132,VALID,-0.322636,VALID,20.6325,VALID,360,VALID,0.755269,
2006-04-30, 01:30:00,VALID,918.016,VALID,0,VALID,99.9812,VALID,-0.220751,VALID,20.5813,VALID,355,VALID,0.926847,
2006-04-30, 01:31:00,VALID,918.044,VALID,0,VALID,100,VALID,-0.220751,VALID,19.7088,VALID,354,VALID,0.792515,
2006-04-30, 01:32:00,VALID,918.056,VALID,0,VALID,100,VALID,-0.220751,VALID,21.1838,VALID,356,VALID,0.70419,
2006-04-30, 01:33:00,VALID,918.068,VALID,0,VALID,100,VALID,-0.305655,VALID,19.9639,VALID,343,VALID,0.917259,
2006-04-30, 01:34:00,VALID,918.08,VALID,0,VALID,100,VALID,-0.305655,VALID,20.4253,VALID,357,VALID,0.614583,
2006-04-30, 01:35:00,VALID,918.096,VALID,0,VALID,100,VALID,-0.322636,VALID,20.7777,VALID,345,VALID,0.789621,
2006-04-30, 01:36:00,VALID,918.11,VALID,0,VALID,100,VALID,-0.322636,VALID,20.5355,VALID,340,VALID,0.455256,
2006-04-30, 01:37:00,VALID,918.122,VALID,0,VALID,100,VALID,-0.305655,VALID,19.9272,VALID,340,VALID,0.301599,
2006-04-30, 01:38:00,VALID,918.133,VALID,0,VALID,100,VALID,-0.305655,VALID,20.6281,VALID,341,VALID,0.39897,
2006-04-30, 01:39:00,VALID,918.135,VALID,0,VALID,100,VALID,-0.305655,VALID,20.466,VALID,344,VALID,0.865141,
2006-04-30, 01:40:00,VALID,918.138,VALID,0,VALID,100,VALID,-0.305655,VALID,21.1347,VALID,356,VALID,0.623326,
2006-04-30, 01:41:00,VALID,918.15,VALID,0,VALID,100,VALID,-0.305655,VALID,21.104,VALID,356,VALID,0.796875,
2006-04-30, 01:42:00,VALID,918.157,VALID,0,VALID,100,VALID,-0.271693,VALID,19.9413,VALID,2,VALID,0.636364,
2006-04-30, 01:43:00,VALID,918.171,VALID,0,VALID,99.9535,VALID,-0.305655,VALID,20.2646,VALID,4,VALID,0.662287,
2006-04-30, 01:44:00,VALID,918.169,VALID,0,VALID,99.9837,VALID,-0.305655,VALID,20.5796,VALID,347,VALID,1.00037,
2006-04-30, 01:45:00,VALID,918.165,VALID,0,VALID,100,VALID,-0.305655,VALID,20.8663,VALID,3,VALID,0.74564,
2006-04-30, 01:46:00,VALID,918.156,VALID,0,VALID,100,VALID,-0.305655,VALID,20.665,VALID,354,VALID,1.48384,
2006-04-30, 01:47:00,VALID,918.155,VALID,0,VALID,100,VALID,-0.305655,VALID,21.6722,VALID,10,VALID,1.07274,
2006-04-30, 01:48:00,VALID,918.159,VALID,0,VALID,100,VALID,-0.305655,VALID,21.2066,VALID,355,VALID,1.16246,
2006-04-30, 01:49:00,VALID,918.173,VALID,0,VALID,100,VALID,-0.288674,VALID,20.3932,VALID,14,VALID,0.77381,
2006-04-30, 01:50:00,VALID,918.172,VALID,0,VALID,100,VALID,-0.220751,VALID,20.3158,VALID,5,VALID,0.966332,
2006-04-30, 01:51:00,VALID,918.181,VALID,0,VALID,100,VALID,-0.288674,VALID,20.1357,VALID,2,VALID,1.22999,
2006-04-30, 01:52:00,VALID,918.18,VALID,0,VALID,100,VALID,-0.20377,VALID,20.2745,VALID,351,VALID,0.760356,
2006-04-30, 01:53:00,VALID,918.186,VALID,0,VALID,100,VALID,-0.220751,VALID,20.7755,VALID,9,VALID,1.04306,
2006-04-30, 01:54:00,VALID,918.174,VALID,0,VALID,100,VALID,-0.220751,VALID,20.2086,VALID,5,VALID,1.04427,
2006-04-30, 01:55:00,VALID,918.186,VALID,0,VALID,100,VALID,-0.288674,VALID,20.9199,VALID,6,VALID,0.763951,
2006-04-30, 01:56:00,VALID,918.197,VALID,0,VALID,100,VALID,-0.305655,VALID,20.3767,VALID,10,VALID,1.03005,
2006-04-30, 01:57:00,VALID,918.196,VALID,0,VALID,100,VALID,-0.288674,VALID,20.7756,VALID,7,VALID,1.2792,
2006-04-30, 01:58:00,VALID,918.219,VALID,0,VALID,100,VALID,-0.305655,VALID,20.2265,VALID,358,VALID,1.08434,
2006-04-30, 01:59:00,VALID,918.223,VALID,0,VALID,100,VALID,-0.288674,VALID,20.7793,VALID,346,VALID,0.807594,
2006-04-30, 02:00:00,VALID,918.232,VALID,0,VALID,100,VALID,-0.254712,VALID,20.1828,VALID,313,VALID,0.557031,
2006-04-30, 02:01:00,VALID,918.242,VALID,0,VALID,100,VALID,-0.288674,VALID,20.1772,VALID,276,VALID,0.706321,
2006-04-30, 02:02:00,VALID,918.234,VALID,0,VALID,100,VALID,-0.254712,VALID,20.2312,VALID,328,VALID,0.820313,
2006-04-30, 02:03:00,VALID,918.232,VALID,0,VALID,100,VALID,-0.305655,VALID,20.3044,VALID,356,VALID,1.10738,
2006-04-30, 02:04:00,VALID,918.239,VALID,0,VALID,100,VALID,-0.271693,VALID,20.3984,VALID,14,VALID,0.713778,
2006-04-30, 02:05:00,VALID,918.248,VALID,0,VALID,100,VALID,-0.237732,VALID,20.9734,VALID,7,VALID,1.20033,
2006-04-30, 02:06:00,VALID,918.249,VALID,0,VALID,99.8884,VALID,-0.305655,VALID,20.6696,VALID,6,VALID,0.808594,
2006-04-30, 02:07:00,VALID,918.239,VALID,0,VALID,99.6798,VALID,-0.305655,VALID,20.3092,VALID,11,VALID,0.772693,
2006-04-30, 02:08:00,VALID,918.243,VALID,0,VALID,99.6264,VALID,-0.271693,VALID,20.0331,VALID,10,VALID,0.775343,
2006-04-30, 02:09:00,VALID,918.258,VALID,0,VALID,99.5514,VALID,-0.254712,VALID,20.053,VALID,9,VALID,0.578311,
2006-04-30, 02:10:00,VALID,918.254,VALID,0,VALID,99.5272,VALID,-0.254712,VALID,21.2248,VALID,9,VALID,0.536458,
2006-04-30, 02:11:00,VALID,918.268,VALID,0,VALID,99.6111,VALID,-0.288674,VALID,20.7117,VALID,11,VALID,0.782617,
2006-04-30, 02:12:00,VALID,918.267,VALID,0,VALID,99.7408,VALID,-0.635847,VALID,21.284,VALID,21,VALID,0.972569,
2006-04-30, 02:13:00,VALID,918.279,VALID,0,VALID,99.7192,VALID,-0.254712,VALID,20.5173,VALID,27,VALID,0.882639,
2006-04-30, 02:14:00,VALID,918.306,VALID,0,VALID,99.6035,VALID,-0.288674,VALID,20.8486,VALID,20,VALID,0.566584,
2006-04-30, 02:15:00,VALID,918.317,VALID,0,VALID,99.428,VALID,-0.356597,VALID,20.4351,VALID,16,VALID,0.652249,
2006-04-30, 02:16:00,VALID,918.336,VALID,0,VALID,99.4611,VALID,-0.322636,VALID,20.5644,VALID,11,VALID,0.958807,
2006-04-30, 02:17:00,VALID,918.334,VALID,0,VALID,99.4064,VALID,-0.271693,VALID,20.9097,VALID,354,VALID,0.714311,
2006-04-30, 02:18:00,VALID,918.344,VALID,0,VALID,99.4853,VALID,-0.339617,VALID,20.534,VALID,340,VALID,0.773633,
2006-04-30, 02:19:00,VALID,918.349,VALID,0,VALID,99.6887,VALID,-0.373578,VALID,20.2206,VALID,329,VALID,0.939029,
2006-04-30, 02:20:00,VALID,918.359,VALID,0,VALID,99.7014,VALID,-0.254712,VALID,19.6603,VALID,343,VALID,0.722222,
2006-04-30, 02:21:00,VALID,918.384,VALID,0,VALID,99.751,VALID,-0.20377,VALID,20.9912,VALID,326,VALID,0.707304,
2006-04-30, 02:22:00,VALID,918.405,VALID,0,VALID,99.7625,VALID,-0.220751,VALID,20.82,VALID,319,VALID,0.196584,
2006-04-30, 02:23:00,VALID,918.429,VALID,0,VALID,99.8375,VALID,-0.271693,VALID,21.2461,VALID,316,VALID,0.401867,
2006-04-30, 02:24:00,VALID,918.453,VALID,0,VALID,99.8159,VALID,-0.220751,VALID,20.5746,VALID,330,VALID,0.631641,
2006-04-30, 02:25:00,VALID,918.472,VALID,0,VALID,99.4458,VALID,-0.288674,VALID,20.5481,VALID,336,VALID,0.259993,
2006-04-30, 02:26:00,VALID,918.498,VALID,0,VALID,99.4039,VALID,-0.271693,VALID,20.8349,VALID,336,VALID,0.0226362,
2006-04-30, 02:27:00,VALID,918.517,VALID,0,VALID,99.325,VALID,-0.356597,VALID,20.0146,VALID,336,VALID,0.0578497,
2006-04-30, 02:28:00,VALID,918.518,VALID,0,VALID,99.409,VALID,-0.322636,VALID,20.0987,VALID,336,VALID,0.0239362,
2006-04-30, 02:29:00,VALID,918.544,VALID,0,VALID,99.6111,VALID,-0.305655,VALID,20.3969,VALID,336,VALID,0.0459223,
2006-04-30, 02:30:00,VALID,918.546,VALID,0,VALID,99.6925,VALID,-0.322636,VALID,20.5002,VALID,336,VALID,0.0167683,
2006-04-30, 02:31:00,VALID,918.554,VALID,0,VALID,99.6378,VALID,-0.305655,VALID,21.1199,VALID,336,VALID,0,
2006-04-30, 02:32:00,VALID,918.55,VALID,0,VALID,99.7472,VALID,-0.305655,VALID,21.5539,VALID,336,VALID,0,
2006-04-30, 02:33:00,VALID,918.548,VALID,0,VALID,99.8489,VALID,-0.305655,VALID,19.7612,VALID,336,VALID,0,
2006-04-30, 02:34:00,VALID,918.539,VALID,0,VALID,99.7319,VALID,-0.305655,VALID,20.8656,VALID,336,VALID,0,
2006-04-30, 02:35:00,VALID,918.546,VALID,0,VALID,99.2106,VALID,-0.305655,VALID,20.9573,VALID,336,VALID,0.0310683,
2006-04-30, 02:36:00,VALID,918.55,VALID,0,VALID,99.5336,VALID,-0.322636,VALID,20.4854,VALID,336,VALID,0.216264,
2006-04-30, 02:37:00,VALID,918.516,VALID,0,VALID,99.9952,VALID,-0.305655,VALID,19.628,VALID,336,VALID,0.291371,
2006-04-30, 02:38:00,VALID,918.515,VALID,0,VALID,100,VALID,-0.305655,VALID,19.815,VALID,336,VALID,0.015625,
2006-04-30, 02:39:00,VALID,918.506,VALID,0,VALID,99.8588,VALID,-0.305655,VALID,19.9948,VALID,336,VALID,0.192708,
2006-04-30, 02:40:00,VALID,918.488,VALID,0,VALID,99.9738,VALID,-0.305655,VALID,20.5475,VALID,336,VALID,0.144055,
2006-04-30, 02:41:00,VALID,918.492,VALID,0,VALID,100,VALID,-0.288674,VALID,19.889,VALID,336,VALID,0.0189495,
2006-04-30, 02:42:00,VALID,918.471,VALID,0,VALID,100,VALID,-0.336475,VALID,20.4466,VALID,331,VALID,0.025436,
2006-04-30, 02:43:00,VALID,918.471,VALID,0,VALID,100,VALID,-1,VALID,20.7333,VALID,299,VALID,0.163021,
2006-04-30, 02:44:00,VALID,918.456,VALID,0,VALID,100,VALID,-1,VALID,20.385,VALID,299,VALID,0.105556,
2006-04-30, 02:45:00,VALID,918.441,VALID,0,VALID,100,VALID,-1,VALID,20.7592,VALID,328,VALID,0.339748,
2006-04-30, 02:46:00,VALID,918.446,VALID,0,VALID,100,VALID,-1,VALID,20.8411,VALID,17,VALID,0.517299,
2006-04-30, 02:47:00,VALID,918.43,VALID,0,VALID,100,VALID,-1,VALID,19.823,VALID,13,VALID,0.301639,
2006-04-30, 02:48:00,VALID,918.422,VALID,0,VALID,100,VALID,-1,VALID,20.9495,VALID,6,VALID,0.385938,
2006-04-30, 02:49:00,VALID,918.423,VALID,0,VALID,100,VALID,-0.867295,VALID,20.5831,VALID,324,VALID,0.366122,
2006-04-30, 02:50:00,VALID,918.42,VALID,0,VALID,100,VALID,-0.220751,VALID,20.0685,VALID,334,VALID,0.477951,
2006-04-30, 02:51:00,VALID,918.412,VALID,0,VALID,100,VALID,-0.186789,VALID,20.512,VALID,10,VALID,0.178977,
2006-04-30, 02:52:00,VALID,918.4,VALID,0,VALID,100,VALID,-0.20377,VALID,20.3969,VALID,10,VALID,0,
2006-04-30, 02:53:00,VALID,918.383,VALID,0,VALID,100,VALID,-0.20377,VALID,19.9971,VALID,10,VALID,0.246951,
2006-04-30, 02:54:00,VALID,918.378,VALID,0,VALID,100,VALID,-0.220751,VALID,20.6933,VALID,358,VALID,0.611662,
2006-04-30, 02:55:00,VALID,918.368,VALID,0,VALID,100,VALID,-0.20377,VALID,20.4819,VALID,340,VALID,0.691992,
2006-04-30, 02:56:00,VALID,918.354,VALID,0,VALID,100,VALID,-0.237732,VALID,20.3864,VALID,294,VALID,0.151344,
2006-04-30, 02:57:00,VALID,918.333,VALID,0,VALID,100,VALID,-0.305655,VALID,20.6646,VALID,294,VALID,0.0793269,
2006-04-30, 02:58:00,VALID,918.311,VALID,0,VALID,100,VALID,-0.322636,VALID,20.1275,VALID,294,VALID,0.0248264,
2006-04-30, 02:59:00,VALID,918.299,VALID,0,VALID,100,VALID,-0.288674,VALID,20.8008,VALID,294,VALID,0.00228659,
2006-04-30, 03:00:00,VALID,918.273,VALID,0,VALID,100,VALID,-0.20377,VALID,18.8375,VALID,294,VALID,0,
2006-04-30, 03:01:00,VALID,918.257,VALID,0,VALID,100,VALID,-0.220751,VALID,20.7888,VALID,294,VALID,0.0699219,
2006-04-30, 03:02:00,VALID,918.25,VALID,0,VALID,99.8472,VALID,-0.220751,VALID,20.7441,VALID,294,VALID,0.279948,
2006-04-30, 03:03:00,VALID,918.231,VALID,0,VALID,99.4001,VALID,-0.20377,VALID,20.7559,VALID,294,VALID,0.442827,
2006-04-30, 03:04:00,VALID,918.219,VALID,0,VALID,99.662,VALID,-0.220751,VALID,19.7163,VALID,325,VALID,0.40434,
2006-04-30, 03:05:00,VALID,918.185,VALID,0,VALID,99.9461,VALID,-0.322636,VALID,19.8821,VALID,351,VALID,0.285156,
2006-04-30, 03:06:00,VALID,918.174,VALID,0,VALID,100,VALID,-0.20377,VALID,20.9012,VALID,351,VALID,0.0847942,
2006-04-30, 03:07:00,VALID,918.145,VALID,0,VALID,100,VALID,-0.220751,VALID,20.302,VALID,351,VALID,0.0598958,
2006-04-30, 03:08:00,VALID,918.125,VALID,0,VALID,100,VALID,-0.305655,VALID,19.6342,VALID,351,VALID,0.0122768,
2006-04-30, 03:09:00,VALID,918.112,VALID,0,VALID,100,VALID,-0.305655,VALID,19.709,VALID,351,VALID,0.0261009,
2006-04-30, 03:10:00,VALID,918.11,VALID,0,VALID,100,VALID,-0.339617,VALID,20.0197,VALID,351,VALID,0.0402778,
2006-04-30, 03:11:00,VALID,918.118,VALID,0,VALID,100,VALID,-0.322636,VALID,19.7741,VALID,351,VALID,0,
2006-04-30, 03:12:00,VALID,918.13,VALID,0,VALID,100,VALID,-0.305655,VALID,19.5363,VALID,351,VALID,0.0771723,
2006-04-30, 03:13:00,VALID,918.142,VALID,0,VALID,100,VALID,-0.768552,VALID,19.8775,VALID,351,VALID,0.208681,
2006-04-30, 03:14:00,VALID,918.135,VALID,0,VALID,100,VALID,-1,VALID,20.1282,VALID,351,VALID,0.211979,
2006-04-30, 03:15:00,VALID,918.106,VALID,0,VALID,100,VALID,-0.884276,VALID,20.0166,VALID,351,VALID,0.220424,
2006-04-30, 03:16:00,VALID,918.083,VALID,0,VALID,100,VALID,-0.322636,VALID,20.372,VALID,351,VALID,0.373183,
2006-04-30, 03:17:00,VALID,918.052,VALID,0,VALID,100,VALID,-0.305655,VALID,19.8546,VALID,351,VALID,0.278011,
2006-04-30, 03:18:00,VALID,918.041,VALID,0,VALID,100,VALID,-0.322636,VALID,19.1142,VALID,351,VALID,0.190952,
2006-04-30, 03:19:00,VALID,918.022,VALID,0,VALID,100,VALID,-0.305655,VALID,19.8198,VALID,351,VALID,0.0142045,
2006-04-30, 03:20:00,VALID,918.026,VALID,0,VALID,100,VALID,-0.288674,VALID,19.405,VALID,351,VALID,0,
2006-04-30, 03:21:00,VALID,918.025,VALID,0,VALID,100,VALID,-0.20377,VALID,20.1278,VALID,351,VALID,0,
2006-04-30, 03:22:00,VALID,918.043,VALID,0,VALID,99.999,VALID,-0.20377,VALID,20.7941,VALID,351,VALID,0,
2006-04-30, 03:23:00,VALID,918.034,VALID,0,VALID,99.9354,VALID,-0.20377,VALID,20.6467,VALID,351,VALID,0,
2006-04-30, 03:24:00,VALID,918.045,VALID,0,VALID,99.9629,VALID,-0.220751,VALID,20.1949,VALID,351,VALID,0,
2006-04-30, 03:25:00,VALID,918.047,VALID,0,VALID,99.9718,VALID,-0.220751,VALID,20.2353,VALID,351,VALID,0,
2006-04-30, 03:26:00,VALID,918.049,VALID,0,VALID,100,VALID,-0.322636,VALID,19.53,VALID,351,VALID,0,
2006-04-30, 03:27:00,VALID,918.047,VALID,0,VALID,99.9677,VALID,-0.322636,VALID,19.8546,VALID,351,VALID,0,
2006-04-30, 03:28:00,VALID,918.035,VALID,0,VALID,99.969,VALID,-0.288674,VALID,20.145,VALID,351,VALID,0.0212573,
2006-04-30, 03:29:00,VALID,918.013,VALID,0,VALID,100,VALID,-0.220751,VALID,19.5013,VALID,351,VALID,0,
2006-04-30, 03:30:00,VALID,918.003,VALID,0,VALID,100,VALID,-0.322636,VALID,20.6175,VALID,351,VALID,0,
2006-04-30, 03:31:00,VALID,918.019,VALID,0,VALID,100,VALID,-0.322636,VALID,19.2696,VALID,351,VALID,0.00111607,
2006-04-30, 03:32:00,VALID,918.026,VALID,0,VALID,100,VALID,-0.305655,VALID,19.9794,VALID,351,VALID,0.248264,
2006-04-30, 03:33:00,VALID,918.032,VALID,0,VALID,99.9662,VALID,-0.271693,VALID,19.026,VALID,351,VALID,0.268555,
2006-04-30, 03:34:00,VALID,917.993,VALID,0,VALID,99.9901,VALID,-0.305655,VALID,20.5228,VALID,351,VALID,0.41353,
2006-04-30, 03:35:00,VALID,917.975,VALID,0,VALID,100,VALID,-0.305655,VALID,19.8827,VALID,351,VALID,0.385719,
2006-04-30, 03:36:00,VALID,917.951,VALID,0,VALID,100,VALID,-0.237732,VALID,19.4926,VALID,354,VALID,0.370808,